Wind_Speed
28 30 29 27 28 30 30 29 26 25 25 25 25 24 22 21 20 16 15 17 20 19 18 18 18 14 13 20 20 15 16 17 18 18 15 15 15 15 13 11 12 12 10 10 10 13 16 19 19 19 19 19 19 19 19 19 18 16 16 17 17 16 15 15 15 15 15 14 13 12 11 11 10 10 9 9 9 8 8 7 6 5 4 3 2 2
30 27 23 21 25 30 32 31 30 29 28 28 28 25 21 22 21 18 16 18 22 18 16 18 19 18 18 22 21 19 19 16 18 20 16 14 15 15 16 13 13 12 10 10 11 13 16 18 20 20 20 19 19 20 20 21 20 18 17 18 18 18 17 17 17 16 16 15 14 12 11 11 11 11 10 10 9 9 9 8 7 6 5 4 4 3
29 22 19 22 25 29 32 34 33 32 31 31 32 29 24 23 22 19 19 19 23 20 18 19 19 18 19 20 20 20 19 16 18 22 18 15 15 17 17 14 14 13 10 11 13 14 15 17 20 21 21 21 21 21 22 22 22 20 18 18 18 19 19 19 18 17 16 14 13 12 12 12 12 11 11 10 10 10 10 9 8 6 6 6 5 4
26 19 19 23 24 28 31 34 35 34 34 34 35 33 29 25 22 19 17 20 24 22 21 20 18 20 19 18 20 21 22 20 20 22 21 17 17 17 17 16 16 15 12 12 14 14 14 17 20 21 22 22 22 22 22 21 21 20 19 19 19 20 20 19 18 17 15 14 13 13 13 13 12 12 11 11 11 11 10 9 8 7 7 6 5 4
26 22 23 25 25 26 29 32 35 36 36 35 36 35 31 30 27 22 19 20 22 24 22 17 19 25 24 23 24 22 22 23 23 23 23 20 19 18 17 18 18 16 14 13 14 14 14 17 20 23 23 23 23 23 22 22 22 22 21 20 21 21 21 19 18 17 15 14 14 14 14 13 13 13 13 13 12 11 10 9 8 8 8 6 4 3
29 27 28 28 27 27 28 31 35 36 36 36 37 35 32 32 29 24 24 24 24 29 26 21 24 26 24 25 23 19 21 23 23 27 29 28 23 18 17 19 19 17 15 14 14 15 15 17 21 24 24 24 23 23 23 23 23 23 23 23 23 22 21 21 19 17 16 16 16 16 15 15 15 14 13 12 11 11 10 9 9 10 9 7 5 3
32 32 32 30 28 28 30 31 33 36 38 38 37 34 33 34 32 28 27 27 28 30 25 23 29 26 23 22 21 23 27 25 24 28 32 32 26 19 16 18 19 17 16 16 17 18 16 15 19 23 24 24 24 24 24 24 23 24 23 23 23 22 21 20 19 18 18 18 18 17 17 16 15 13 12 12 12 12 11 11 11 11 9 7 5 3
34 34 34 31 30 30 31 30 31 34 38 39 36 34 35 35 36 34 31 27 27 28 24 24 29 31 29 26 24 26 27 25 24 25 29 32 29 23 18 17 19 19 18 18 19 18 16 14 17 22 25 26 26 25 24 23 23 23 23 23 23 22 21 20 19 19 19 19 19 18 18 16 15 13 13 13 13 13 12 12 11 11 9 7 6 4
33 34 35 34 33 32 31 29 30 33 37 37 36 37 38 37 38 38 37 32 28 29 29 28 30 32 31 29 28 26 26 28 30 29 30 36 37 27 22 21 21 21 20 18 18 18 17 17 19 24 28 29 27 25 24 23 24 25 24 24 23 21 20 19 19 20 20 21 20 19 18 16 15 14 14 15 14 13 13 12 11 10 9 7 6 4
34 36 36 36 36 34 32 30 31 34 34 35 37 39 39 39 39 39 41 39 36 37 38 35 33 32 29 28 28 28 29 27 25 26 27 34 41 32 23 23 22 21 20 17 17 18 19 21 24 27 30 30 28 26 25 25 25 25 24 23 22 21 19 19 19 20 21 21 20 18 17 16 15 15 15 14 14 14 13 12 11 10 9 7 6 5
37 38 39 38 38 36 33 32 33 33 32 34 37 39 39 41 41 40 42 42 43 47 46 39 36 36 35 31 25 26 30 25 22 24 21 29 37 28 19 22 22 21 20 17 19 20 22 25 27 29 30 29 28 26 25 24 24 24 23 22 21 20 19 19 20 21 21 20 19 18 17 17 16 16 15 14 14 14 13 12 11 10 9 8 7 6
41 42 43 41 40 38 36 35 35 34 33 34 36 39 41 40 40 41 42 44 48 50 47 42 40 42 44 38 28 27 31 29 28 26 21 28 33 22 17 21 20 20 21 20 21 22 23 24 24 25 26 26 26 24 23 22 23 22 22 21 20 19 19 19 20 21 21 20 19 18 17 17 17 16 15 15 14 13 13 11 11 10 10 9 9 8
44 43 43 42 41 40 38 38 38 38 37 37 38 39 39 38 40 44 45 48 50 46 43 44 45 47 47 41 33 30 31 32 28 25 25 32 36 27 25 26 21 20 23 22 22 23 22 21 21 21 22 23 22 20 20 20 21 22 21 21 20 19 19 19 20 21 21 20 19 19 18 17 17 17 16 15 14 13 13 12 11 11 11 10 9 9
46 45 44 43 42 41 40 41 42 42 40 39 39 38 39 41 44 45 45 46 46 42 42 44 44 48 48 40 33 32 33 32 27 25 28 33 34 27 24 29 28 25 25 23 23 23 23 21 20 19 20 21 20 18 19 20 20 21 21 21 20 20 20 20 20 20 20 20 20 19 18 18 18 18 17 16 15 14 13 13 12 11 11 11 11 10
49 49 46 44 44 44 43 44 43 42 41 39 39 38 39 43 42 40 40 41 42 42 43 44 45 48 44 35 31 33 34 32 28 27 27 29 33 26 20 25 31 30 26 23 23 24 24 23 19 17 17 19 19 19 20 21 21 22 22 21 21 21 21 20 20 21 21 21 21 20 19 18 18 18 18 16 15 15 14 14 13 12 12 12 12 11
51 49 46 45 46 45 43 44 42 42 43 42 41 41 41 40 39 38 37 37 39 41 42 43 43 43 38 33 34 37 36 33 31 30 27 28 33 31 23 23 30 33 28 24 24 23 24 24 19 16 16 17 19 20 21 22 22 22 23 23 23 23 22 22 22 22 22 22 22 20 19 18 18 18 18 16 15 15 14 14 13 13 13 13 13 13
51 49 47 47 47 46 45 44 43 44 45 44 43 42 40 38 38 39 34 31 33 36 39 41 40 37 34 32 33 36 35 33 32 31 29 30 33 36 30 24 27 33 31 24 23 24 25 26 20 17 16 17 19 20 21 22 23 23 24 24 25 24 24 24 23 23 23 23 21 20 19 18 17 17 18 17 16 15 14 13 13 13 12 12 13 13
49 47 48 50 48 46 47 46 45 46 46 46 44 40 38 39 40 39 34 28 28 29 30 32 31 30 31 28 27 29 29 29 29 29 28 28 33 37 33 23 21 27 29 25 24 26 27 25 20 17 16 17 18 19 21 22 24 25 26 26 25 25 24 24 24 24 23 21 20 19 18 17 16 17 18 18 17 15 14 13 13 13 13 13 12 12
48 39 37 46 49 47 49 48 46 48 48 45 43 40 39 42 43 41 36 32 32 31 29 27 24 23 26 26 21 20 20 20 23 28 26 25 33 37 32 24 22 24 26 25 25 26 26 24 20 17 16 17 18 20 21 23 25 26 26 26 26 25 25 25 24 22 20 19 19 18 17 16 16 16 16 17 17 16 16 15 15 15 14 14 13 13
52 42 29 33 43 45 49 52 48 49 50 47 44 42 41 43 43 41 38 35 34 32 27 26 26 24 24 26 23 17 17 18 20 26 26 25 32 33 30 27 23 22 27 26 23 24 24 23 21 18 18 18 19 20 22 24 25 26 26 26 25 25 25 24 22 20 19 18 18 17 17 16 15 15 15 15 15 15 16 16 16 16 16 16 16 15
53 48 36 27 32 39 49 56 52 49 51 52 49 46 44 45 42 40 39 38 36 33 25 20 20 18 17 23 25 20 18 20 22 24 26 26 29 29 30 30 24 23 29 27 20 21 23 23 23 21 20 21 21 22 23 24 25 25 26 25 24 24 23 22 20 19 19 19 18 18 17 16 16 16 15 15 15 15 15 16 16 17 17 17 17 17
54 51 46 35 30 37 48 54 51 48 49 51 51 48 47 47 43 41 42 40 39 37 31 21 13 10 11 16 17 15 18 22 21 22 25 27 29 31 32 33 28 26 29 27 21 21 23 24 26 25 23 23 22 22 23 23 24 24 24 24 24 23 21 20 20 20 20 20 20 19 18 18 17 16 16 15 15 16 16 16 16 17 18 17 18 18
59 54 49 41 33 33 42 45 47 49 47 47 49 48 48 48 46 44 43 40 39 39 36 27 16 12 18 20 17 16 19 24 22 22 25 27 29 32 34 34 30 26 28 27 25 24 25 27 29 28 25 23 23 22 23 23 23 22 22 22 23 22 21 21 21 20 21 20 19 19 19 19 18 17 17 16 16 16 17 17 17 18 18 18 19 19
62 55 50 48 40 33 35 38 42 46 45 45 48 49 49 49 48 45 42 39 39 37 36 33 24 19 25 26 24 22 21 23 25 25 25 26 29 31 33 33 30 25 25 27 26 25 26 29 30 26 23 21 22 23 23 22 21 21 22 21 21 21 21 21 22 21 20 20 19 20 19 19 18 18 17 17 17 17 18 18 19 19 19 19 20 20
64 60 58 57 47 36 35 37 39 45 48 47 49 51 51 49 46 45 42 39 38 35 35 35 30 28 33 33 30 26 19 21 26 27 26 27 29 30 31 32 32 28 25 27 29 27 24 27 28 23 20 20 22 22 21 21 21 21 21 21 21 22 22 22 21 20 20 20 20 20 19 19 19 18 18 18 18 19 20 20 20 20 20 20 20 20
66 68 65 61 51 41 40 42 41 46 51 51 49 50 51 51 46 43 42 41 38 35 36 33 28 30 36 34 30 26 22 24 26 25 26 28 29 29 30 32 33 32 27 28 32 30 26 27 26 22 21 21 22 22 21 21 22 22 22 22 22 22 22 22 21 20 20 21 20 20 19 20 19 19 19 19 19 20 21 21 20 20 20 19 19 19
67 71 69 64 56 46 40 42 38 37 43 49 51 50 50 51 47 41 41 43 39 36 35 31 27 28 33 33 30 26 25 24 21 19 24 27 28 30 32 34 35 35 32 31 34 31 27 26 25 22 22 22 24 24 21 21 23 23 22 22 21 21 21 21 21 20 20 20 20 20 19 20 20 20 20 20 21 21 22 22 21 19 19 18 19 18
67 70 70 66 60 51 43 42 38 36 39 44 47 48 49 50 48 44 44 42 39 37 34 30 28 26 29 36 34 28 25 22 17 18 23 27 31 34 35 35 36 37 35 32 33 32 29 25 24 24 25 26 27 26 22 21 23 24 23 22 22 21 21 21 21 20 20 21 21 20 20 21 22 22 22 22 22 22 22 22 21 20 19 19 18 18
71 71 70 66 60 53 49 43 40 41 43 44 44 43 43 46 48 50 47 41 39 39 34 31 32 30 31 39 37 27 26 25 20 20 23 27 33 36 36 36 36 37 37 33 32 33 32 29 27 28 29 30 30 28 24 22 23 24 25 24 23 22 22 21 21 20 19 19 20 20 20 22 22 22 22 22 23 23 23 23 22 20 19 18 18 19
74 71 70 69 62 56 54 49 43 42 44 46 45 39 37 41 46 49 48 43 39 38 34 33 36 35 36 40 36 27 26 28 26 26 25 26 31 34 35 38 38 36 36 35 34 35 35 32 30 31 32 31 30 29 27 25 24 25 25 24 23 22 22 21 20 19 18 17 18 19 20 21 22 21 22 22 23 23 24 24 23 22 20 19 19 19
76 72 72 74 69 63 60 54 48 45 45 46 46 44 40 38 41 43 45 44 39 35 36 36 35 35 35 38 38 33 30 31 32 31 28 26 27 30 31 33 35 36 35 35 36 36 36 36 34 33 32 31 31 31 30 29 27 27 26 25 24 23 22 21 20 19 18 17 17 18 18 19 20 20 20 21 22 23 24 25 24 23 22 20 19 19
77 76 75 76 73 68 64 58 50 49 51 51 51 52 46 36 33 38 41 43 42 36 35 37 36 37 36 35 38 37 35 37 37 33 30 27 26 28 28 28 30 35 37 37 38 38 38 38 37 35 34 33 33 33 33 32 31 29 28 27 25 25 24 23 21 21 20 18 17 17 16 16 17 18 19 20 21 23 25 26 25 23 22 21 20 20
78 78 75 77 78 72 64 60 56 53 55 56 54 53 49 41 35 35 36 39 43 39 35 37 39 41 42 40 38 37 40 42 38 31 29 28 27 28 30 32 34 37 39 40 40 41 40 40 39 38 37 36 36 35 34 33 33 32 31 29 28 27 26 25 24 24 23 21 19 18 17 16 16 16 17 19 21 23 25 26 25 23 22 22 21 21
79 80 77 77 80 77 67 62 63 59 56 58 56 51 51 47 38 33 31 33 35 35 34 35 35 38 43 44 41 40 43 45 38 30 28 29 28 27 27 31 34 34 35 36 37 39 41 41 41 39 37 35 35 35 34 33 33 34 33 32 30 29 28 27 27 27 26 25 22 20 19 18 17 16 17 18 20 22 24 25 24 24 23 23 22 21
77 78 78 76 77 78 74 67 66 64 59 58 55 50 52 51 44 41 38 30 27 28 30 29 29 35 43 46 46 46 46 45 40 35 32 30 27 24 24 26 28 30 32 32 32 33 36 38 37 35 34 33 33 33 33 33 34 34 34 33 32 31 31 30 30 29 29 29 27 25 23 21 20 19 19 19 20 21 21 23 24 24 24 23 23 21
75 75 76 76 75 75 77 73 74 74 66 59 56 53 54 55 50 47 48 43 37 38 39 38 38 40 45 48 50 51 48 44 40 36 35 31 25 22 23 24 25 28 30 30 30 30 31 33 32 31 32 33 32 31 32 32 33 34 34 34 33 33 33 33 32 32 31 31 31 30 27 24 22 21 21 21 22 22 22 23 24 25 25 24 23 22
73 73 73 75 74 72 73 75 79 78 70 65 61 56 56 58 54 51 51 52 52 52 50 49 48 47 46 48 50 49 45 41 37 35 34 31 25 23 25 25 25 27 28 28 26 24 25 29 30 31 32 33 32 32 32 32 33 33 34 35 34 34 35 34 33 33 33 33 33 32 31 28 24 22 20 19 21 22 23 24 25 25 25 25 24 23
67 70 70 72 73 72 70 70 72 71 71 74 68 56 56 60 58 56 56 57 59 58 54 54 55 51 47 46 46 43 39 36 35 35 34 33 31 32 32 29 28 28 28 27 23 20 21 25 28 29 31 32 32 32 32 32 33 34 35 36 35 35 35 34 34 34 33 34 34 34 33 31 27 23 20 18 18 20 23 25 25 25 26 26 25 24
61 64 68 71 72 69 65 65 65 59 56 64 66 61 62 63 60 60 60 59 60 59 55 55 57 55 52 48 45 44 42 39 38 37 38 40 41 38 35 32 31 30 29 27 23 21 21 23 24 25 27 28 28 28 29 30 31 32 33 35 36 36 35 34 34 34 34 35 35 35 35 33 29 25 21 18 17 19 21 24 25 25 26 26 26 25
56 59 63 68 70 68 64 61 56 45 37 40 46 49 57 65 65 63 62 61 62 61 58 57 58 58 56 52 48 48 46 43 42 42 44 47 46 40 37 36 35 33 31 28 26 24 24 24 23 23 24 24 24 24 25 26 27 28 29 31 33 34 34 35 36 37 37 37 36 36 37 35 30 27 23 20 18 19 21 23 24 24 24 25 25 25
51 56 60 65 66 67 66 64 55 41 32 34 36 38 50 65 70 67 64 65 66 63 62 61 60 59 59 55 53 54 51 47 45 44 46 47 45 42 40 38 37 36 33 30 29 29 28 27 25 25 24 23 23 23 23 23 24 25 25 26 27 28 30 33 36 38 39 39 38 37 38 36 32 28 25 23 21 20 20 21 22 22 22 23 24 24
50 52 58 63 65 64 63 64 62 50 37 34 39 46 54 61 64 67 70 70 68 65 66 65 60 58 57 56 54 54 52 48 45 42 42 41 40 39 39 39 38 38 35 33 33 32 31 29 28 27 26 25 25 25 24 24 25 25 26 25 24 24 26 29 32 36 38 39 39 39 38 37 35 31 28 26 24 22 21 20 20 20 20 20 21 22
56 53 54 59 64 65 63 63 66 59 42 31 35 45 50 51 55 64 70 70 67 65 67 66 61 56 55 56 55 52 51 50 47 45 43 42 40 39 40 41 40 38 36 36 36 34 32 31 30 29 28 27 27 27 26 26 27 26 26 26 26 26 27 27 28 31 34 36 38 38 38 38 37 34 31 28 26 24 23 22 22 21 20 20 21 22
57 58 57 55 58 63 64 64 67 63 47 32 34 44 47 45 49 57 62 65 67 65 63 63 61 56 55 55 55 55 54 53 51 47 45 44 43 41 41 41 40 38 37 38 37 36 35 33 31 30 29 29 29 28 27 27 26 25 25 25 27 28 28 28 27 27 29 32 34 36 38 38 37 36 33 30 28 27 26 25 25 24 23 22 23 23
50 56 61 59 56 59 63 65 66 64 54 42 44 55 56 51 52 55 55 57 63 65 62 59 58 57 55 54 54 56 56 55 53 50 47 46 45 43 42 41 40 39 39 40 40 39 37 35 33 31 30 30 30 29 28 27 27 26 25 25 26 27 28 28 27 26 26 28 31 34 35 36 37 36 34 31 30 29 28 27 27 27 26 26 25 25
45 50 56 60 60 61 63 66 67 65 60 55 57 64 63 58 60 63 60 56 57 61 62 60 57 56 55 54 55 57 56 55 54 51 48 47 46 44 43 42 41 40 40 41 42 41 39 38 36 34 33 32 32 31 29 29 29 28 27 26 26 27 28 28 28 27 27 28 30 32 32 34 35 35 34 33 32 31 30 29 29 29 28 28 27 27
45 48 49 54 60 63 63 63 65 66 67 65 65 66 64 60 61 66 67 63 59 59 60 60 57 56 54 52 53 56 56 56 55 53 50 48 46 45 44 43 43 42 42 42 43 43 42 40 38 36 35 34 34 33 31 30 30 30 29 28 28 27 28 28 28 28 28 28 29 29 30 31 34 34 34 34 34 33 32 31 31 31 30 29 29 29
43 48 48 49 55 62 65 63 63 67 71 72 70 69 67 65 63 63 65 65 62 60 58 56 55 55 55 52 51 54 56 56 55 54 52 49 47 46 45 44 44 44 43 43 42 42 43 42 41 39 38 36 36 35 33 32 32 31 30 30 29 29 28 27 28 29 29 28 28 28 29 31 32 33 34 35 36 35 34 33 33 33 32 31 31 31
38 45 50 51 52 58 64 65 65 67 72 74 72 70 69 68 67 66 65 63 63 61 58 56 55 56 56 55 53 54 55 56 55 54 52 49 47 47 46 45 45 45 44 43 42 42 42 43 42 41 40 39 39 38 36 34 33 33 32 32 30 30 29 28 28 29 29 29 29 28 29 31 32 34 35 36 36 35 34 33 34 35 34 32 32 33
35 38 45 51 55 57 61 64 64 66 69 72 72 70 71 73 74 72 69 67 66 65 62 59 58 58 57 57 56 55 54 54 54 53 52 50 48 48 48 47 46 46 45 43 42 42 42 42 43 43 42 41 40 40 38 37 35 35 35 33 32 31 30 30 30 30 30 30 30 29 30 32 33 35 36 35 34 33 33 34 35 35 35 34 34 35
37 38 41 46 53 58 60 62 64 67 70 74 75 76 78 81 82 79 75 72 72 71 68 65 62 59 58 58 58 57 56 55 54 53 52 51 49 48 48 48 48 47 45 43 42 41 42 43 43 43 42 42 41 41 40 39 37 36 36 36 35 34 33 32 32 32 31 31 31 31 32 34 34 36 36 35 34 34 34 35 36 36 37 37 37 37
Wind_Direction
230 229 229 231 233 232 229 229 229 229 227 225 229 231 233 231 223 216 206 217 228 230 227 218 219 223 224 236 235 226 232 244 250 243 239 248 250 248 250 246 243 242 232 224 231 239 232 218 209 204 199 198 197 194 193 191 193 195 192 190 191 193 192 190 191 191 193 194 192 190 187 184 183 182 182 177 171 168 167 168 170 168 163 156 136 110
232 230 230 229 229 229 227 226 225 224 223 223 223 223 229 236 228 205 199 225 232 229 228 223 223 223 222 236 247 244 233 238 255 251 235 235 247 251 251 247 241 244 240 231 232 233 234 226 213 205 199 197 196 196 196 192 191 194 195 193 191 193 195 196 197 197 198 198 194 190 187 184 184 183 181 178 175 174 174 173 176 176 168 157 139 118
233 230 227 227 225 226 225 222 223 222 219 220 222 218 214 227 236 210 191 216 230 228 223 228 242 238 223 230 249 257 250 246 258 262 249 228 230 244 249 251 250 250 243 239 242 237 232 227 219 211 202 196 195 197 198 196 192 192 195 196 193 194 197 198 200 201 200 199 195 189 187 187 186 184 181 179 179 180 179 178 179 178 169 157 143 122
231 227 227 229 225 225 224 220 221 221 219 217 220 221 212 211 225 217 202 212 219 223 222 221 234 240 238 236 235 244 255 264 270 266 257 237 224 232 242 247 247 246 243 241 248 246 236 229 224 217 208 199 195 196 200 200 195 193 195 198 197 197 199 199 201 202 199 196 194 191 190 190 188 185 182 181 183 182 180 181 181 176 167 158 145 126
227 225 226 226 223 223 224 221 219 220 220 219 219 221 218 211 210 205 210 221 224 230 231 226 228 226 226 228 226 231 246 262 274 269 261 252 233 225 232 241 241 240 241 241 248 251 240 231 227 221 211 203 197 195 199 201 198 196 197 198 199 200 199 198 200 201 198 194 194 194 192 192 191 188 186 183 182 181 179 179 179 173 167 163 153 138
224 224 225 224 222 220 221 221 219 219 220 222 222 220 219 218 211 199 201 209 221 234 235 230 231 230 223 218 216 224 232 240 255 261 263 264 251 228 222 235 239 238 238 241 243 245 241 233 229 224 214 205 199 197 199 201 200 199 199 199 200 202 200 198 198 197 197 196 196 196 194 195 195 191 187 181 179 179 178 177 177 175 174 173 168 163
223 223 225 224 224 221 221 221 218 218 220 221 223 222 220 219 214 207 201 200 211 230 241 235 233 239 237 225 216 216 221 229 243 250 256 263 257 233 222 235 243 241 239 242 240 239 241 236 231 229 221 209 200 199 201 201 202 202 204 203 202 203 202 200 197 196 199 200 200 200 198 198 196 191 184 180 181 181 180 180 180 180 180 180 176 170
225 225 226 225 225 222 222 223 219 219 221 222 221 221 222 221 216 211 205 204 213 225 234 238 245 253 247 234 226 218 217 226 235 239 249 260 256 234 225 234 240 243 243 243 240 233 232 232 231 232 226 215 203 199 202 202 203 206 207 208 206 204 204 203 200 198 202 204 204 203 201 201 196 190 187 185 187 185 184 186 183 183 183 180 179 172
228 228 229 227 226 225 223 223 222 221 221 221 219 219 221 221 220 216 209 207 212 219 219 220 234 250 252 242 234 225 220 220 222 226 233 249 256 244 231 232 234 241 244 245 244 234 226 226 230 229 225 217 205 198 200 203 205 207 209 209 208 206 205 206 205 204 206 208 208 206 202 201 197 194 193 191 192 191 190 191 187 188 187 181 184 179
226 227 228 227 226 226 223 222 223 223 222 219 219 220 220 220 221 221 218 213 211 215 215 211 216 230 243 242 234 235 236 228 234 241 224 233 256 257 234 226 232 241 246 248 247 236 225 222 223 223 221 216 207 198 198 202 206 209 212 211 209 208 207 207 210 211 213 213 212 209 205 202 200 199 199 198 198 198 197 197 194 194 193 189 194 197
223 224 225 225 225 224 223 223 224 224 223 220 220 221 221 222 220 220 223 221 220 223 221 216 215 221 231 233 227 235 242 232 234 248 229 228 251 259 237 224 227 237 246 247 244 234 222 220 220 221 220 217 210 200 198 202 208 211 214 214 211 210 208 208 211 215 218 218 215 212 208 204 204 205 204 204 204 205 205 204 202 202 203 204 209 215
221 221 223 223 223 222 221 223 226 225 223 221 221 222 223 224 223 221 223 223 227 232 230 227 224 226 236 240 230 230 242 238 225 225 230 236 244 253 254 241 228 229 240 243 242 235 224 219 217 218 220 222 217 205 200 203 208 213 214 217 215 212 211 210 212 217 219 221 219 216 212 208 208 210 209 210 210 212 213 211 211 211 213 218 222 229
223 224 225 223 222 222 220 222 225 224 223 222 220 221 221 223 225 224 223 224 230 235 235 235 232 233 243 247 239 232 240 249 239 217 218 235 245 251 255 256 249 235 236 240 244 244 237 223 213 212 215 220 220 210 205 207 210 214 215 217 218 215 214 212 213 218 221 222 222 219 215 211 212 215 214 215 217 219 220 219 220 221 223 228 234 240
225 225 226 225 224 223 221 221 224 225 223 222 222 221 219 221 226 226 225 227 233 237 237 236 235 240 247 248 245 240 238 246 249 230 219 232 248 249 241 252 258 246 236 234 239 244 243 230 212 207 208 210 212 210 209 210 212 216 216 216 218 218 217 216 216 219 222 224 224 222 220 215 215 220 220 220 222 223 226 228 229 231 233 237 243 248
225 225 225 226 226 223 222 222 224 227 227 225 224 224 223 225 230 230 229 230 232 236 238 237 238 244 250 252 251 247 243 244 244 236 228 233 249 250 232 242 253 250 239 231 235 241 242 233 214 203 206 205 206 207 209 211 212 215 217 216 217 218 219 219 218 220 222 225 226 225 224 220 219 224 227 227 227 229 231 233 236 239 240 244 249 254
226 227 227 227 227 225 223 223 223 226 229 228 224 225 226 228 232 233 233 234 235 236 239 241 244 249 253 256 255 251 249 248 242 237 229 228 245 254 244 239 248 251 245 234 233 237 240 238 221 204 207 207 206 207 209 212 212 214 217 218 218 218 217 218 218 219 221 224 227 227 226 225 223 226 232 234 235 235 236 237 239 242 243 245 250 255
227 226 226 226 227 227 225 223 222 224 228 228 225 225 229 230 231 231 231 233 235 237 240 243 249 254 255 253 253 252 251 250 248 244 235 228 240 254 252 242 244 249 249 241 234 231 236 239 225 207 209 212 211 210 211 213 214 215 217 219 220 220 219 218 218 219 221 224 226 228 229 229 227 228 232 237 240 240 240 241 243 245 246 246 248 252
225 227 229 228 226 228 227 223 220 222 227 230 229 227 227 229 229 227 224 225 229 233 238 243 247 254 259 255 250 252 251 248 248 247 241 230 234 250 255 244 234 240 244 242 237 235 238 239 227 212 213 217 216 214 213 214 215 216 218 219 220 221 221 221 221 222 224 226 229 232 233 233 232 231 232 237 243 247 248 248 249 249 250 249 249 250
220 223 230 232 228 227 230 226 219 221 225 229 233 231 227 228 231 229 225 225 228 230 232 236 234 237 254 262 256 249 246 241 238 242 241 225 226 243 253 243 230 233 236 233 232 238 244 245 235 219 215 219 220 218 215 215 217 217 219 220 219 220 221 222 224 225 227 230 233 236 239 239 238 236 236 239 243 248 252 254 255 254 254 254 253 253
216 215 217 233 234 229 230 227 218 218 222 223 226 229 229 229 232 234 233 230 231 231 230 235 236 229 240 256 257 249 240 228 221 232 235 223 224 237 244 239 232 232 236 232 227 236 245 247 239 221 214 219 221 221 219 217 218 219 219 220 220 220 223 224 226 228 230 234 238 241 243 244 244 244 244 244 244 247 250 254 257 259 260 260 260 259
211 211 204 215 231 230 229 225 217 215 220 220 220 222 226 228 228 231 233 231 230 229 226 230 242 248 249 254 260 264 254 231 215 225 230 224 227 234 235 236 231 228 238 238 228 233 242 244 238 223 213 216 218 222 223 220 219 220 221 221 221 222 224 226 227 229 231 234 237 241 244 245 247 248 248 247 247 248 249 252 255 258 259 261 262 262
205 207 202 195 209 226 230 224 217 218 221 223 223 222 225 227 225 225 228 230 229 228 224 215 220 251 247 236 243 253 254 238 219 221 228 222 223 228 231 238 235 228 236 238 226 229 237 236 232 224 214 215 219 223 226 224 222 222 223 224 224 223 224 227 229 231 232 233 235 237 239 241 242 245 247 248 250 251 253 254 255 256 258 260 261 262
204 205 200 190 192 217 233 230 221 220 222 225 226 224 226 229 227 225 225 227 228 226 224 215 205 227 232 226 226 224 234 240 225 221 228 222 220 225 232 241 242 230 230 231 224 224 230 229 226 225 219 216 220 223 226 227 226 225 227 227 226 225 224 226 229 231 233 235 236 237 238 239 241 243 246 249 253 256 258 259 260 261 262 262 262 263
204 201 198 193 188 199 225 234 228 223 221 223 224 221 223 228 231 230 226 227 230 228 225 216 206 218 228 229 233 228 229 241 231 221 226 223 218 222 231 243 247 237 227 229 229 225 228 230 228 230 229 223 224 227 228 229 228 228 230 230 230 229 227 227 228 230 232 233 236 238 239 242 244 247 250 252 254 257 258 260 261 263 263 264 266 267
202 201 201 199 191 188 207 221 226 223 217 217 221 221 220 223 229 232 228 227 229 229 229 221 210 218 226 226 230 233 237 246 235 222 222 224 221 223 230 240 247 243 228 226 233 230 225 229 232 235 236 233 233 234 231 230 230 230 232 233 234 234 232 232 232 232 234 234 236 238 240 243 246 250 254 256 257 258 259 260 261 263 265 266 267 267
202 201 202 198 188 184 199 211 217 219 216 213 215 220 221 218 219 227 228 225 225 226 229 226 215 224 234 233 233 234 236 240 235 222 217 222 224 224 228 233 241 245 233 224 232 233 223 224 231 233 233 233 238 239 232 226 228 232 234 236 238 239 240 239 238 237 238 239 239 240 241 244 247 250 253 256 257 258 259 261 262 264 265 265 265 266
205 202 202 199 190 184 197 211 214 217 219 216 213 216 222 219 213 217 225 224 222 222 225 222 215 224 237 239 235 231 231 235 233 221 214 217 220 221 225 230 235 241 237 226 228 232 228 227 230 232 232 231 235 238 231 222 225 230 233 237 240 243 246 248 247 246 246 246 245 244 245 247 248 250 252 254 255 256 258 261 263 264 264 264 264 266
207 203 201 200 194 187 193 206 210 211 214 218 215 213 219 222 213 211 218 221 220 220 220 218 214 216 231 237 232 224 223 226 225 220 215 214 218 222 227 232 233 236 239 234 231 235 239 238 235 233 231 231 234 238 234 225 224 227 230 233 237 240 243 246 249 251 252 253 253 251 250 250 249 250 251 252 254 255 257 260 263 264 261 260 263 267
206 203 199 197 193 189 192 197 202 209 210 212 213 208 214 222 219 214 214 215 220 220 214 211 212 209 221 234 232 220 215 218 224 231 223 216 221 224 225 230 233 235 240 240 236 238 242 243 240 236 234 235 238 241 239 234 230 230 230 230 232 236 237 240 244 247 250 253 256 256 254 253 253 251 250 251 253 255 256 258 261 261 259 258 262 266
203 201 198 195 191 190 194 193 193 202 209 210 208 200 204 217 222 220 214 210 217 221 212 210 216 216 223 237 237 221 212 216 223 232 229 222 226 229 226 228 232 235 241 243 239 238 241 243 243 240 239 240 242 243 243 242 239 237 235 232 231 235 238 238 240 245 247 249 253 255 255 255 254 251 247 248 251 253 254 256 258 259 258 256 258 262
201 201 199 196 194 193 198 198 193 195 203 210 208 198 195 209 220 224 220 211 211 218 215 213 216 217 220 236 241 230 220 222 225 229 232 226 226 229 227 229 235 237 238 241 242 240 240 242 244 244 244 244 245 246 247 247 245 243 242 239 237 240 244 244 244 247 249 251 254 256 256 256 255 251 247 247 249 251 253 255 257 259 258 257 258 262
201 201 200 198 196 195 199 200 195 194 199 207 210 203 193 194 211 221 222 215 208 212 218 215 216 218 216 225 237 235 229 229 229 230 235 234 231 228 219 215 223 230 231 232 236 238 237 239 242 244 246 246 246 247 248 248 249 249 248 248 247 248 251 253 255 257 256 258 260 259 255 253 254 252 249 248 250 250 252 255 258 260 261 262 262 263
201 201 201 201 197 194 197 201 199 197 200 206 212 209 195 185 194 211 222 221 211 208 214 216 217 222 221 221 229 233 234 235 233 232 237 241 241 237 224 215 218 225 227 227 230 233 235 236 238 240 242 244 245 246 247 248 250 252 252 253 254 254 256 259 261 264 264 264 265 262 255 250 250 252 252 252 253 252 254 258 262 263 264 264 264 266
202 202 202 203 200 195 194 202 205 201 201 207 210 207 197 186 182 191 210 228 226 214 215 221 224 228 230 227 225 229 236 238 235 231 234 237 240 241 238 234 235 236 237 235 234 235 235 234 237 240 242 244 244 244 245 246 248 251 253 254 256 257 259 261 262 264 267 268 269 267 261 254 252 254 256 257 258 258 259 262 265 265 265 265 266 269
203 203 203 204 203 198 195 203 210 207 205 208 208 205 202 196 187 181 185 201 222 216 209 215 222 228 232 230 225 226 232 235 233 232 234 236 238 239 238 239 242 246 248 248 247 246 242 240 243 245 245 246 246 244 244 245 246 249 251 254 257 258 259 260 261 262 264 267 270 271 268 263 258 258 259 259 260 262 263 265 265 266 266 266 266 269
205 205 205 205 205 203 199 203 211 212 210 211 210 208 207 203 198 191 183 181 192 201 198 198 203 213 223 227 226 227 229 231 231 231 232 234 234 232 232 231 233 238 243 245 247 248 248 250 253 254 252 251 251 249 248 248 248 249 251 254 257 258 259 260 261 261 262 263 267 271 272 270 267 266 265 261 258 257 259 262 263 264 265 265 265 267
207 207 206 206 207 206 204 204 208 211 213 214 213 213 213 208 202 197 191 184 188 195 194 194 199 207 216 222 225 225 226 229 229 227 227 229 228 226 227 226 226 231 235 238 240 240 243 248 252 254 253 253 253 253 252 251 251 252 253 255 256 257 258 259 260 260 260 260 263 268 271 272 274 273 268 262 258 254 253 255 257 259 261 262 263 264
208 208 208 208 208 207 207 207 207 210 213 215 214 216 219 214 204 200 198 193 196 203 200 197 202 211 219 225 229 229 228 228 226 221 217 218 220 221 222 222 224 228 230 232 233 233 236 241 242 244 246 248 249 251 251 252 252 253 254 255 256 257 257 258 259 259 259 258 260 263 266 270 273 272 265 261 261 257 252 250 252 255 258 260 260 261
209 208 209 210 209 207 208 207 205 206 213 216 215 218 224 221 211 206 205 202 205 212 211 205 208 217 224 227 229 231 228 224 222 217 210 211 217 221 224 228 230 231 231 232 231 229 231 234 235 237 240 243 245 246 247 249 250 251 252 253 255 256 256 256 257 257 257 257 257 258 262 266 270 269 261 256 259 259 254 251 251 253 256 259 261 263
212 210 209 210 210 207 205 203 200 200 206 212 213 216 223 225 220 214 210 208 209 212 213 211 212 218 225 227 228 231 229 224 222 216 209 210 216 220 227 233 236 235 234 233 233 230 227 228 229 230 233 236 238 239 240 242 244 246 248 249 250 251 253 253 253 253 254 255 255 255 258 262 265 266 259 252 256 260 256 252 251 253 256 260 263 266
214 214 211 210 211 210 207 202 196 194 197 202 204 207 215 221 223 221 216 214 214 215 217 216 216 220 225 225 226 230 231 227 224 216 210 211 214 217 225 233 236 237 235 233 233 231 228 227 226 226 227 228 230 233 234 237 240 242 244 245 245 246 247 246 246 247 250 253 253 253 256 259 262 262 256 249 252 257 257 253 252 253 256 260 265 269
211 215 214 212 211 210 210 206 200 195 193 198 205 210 214 217 220 222 221 219 218 219 220 220 221 226 228 225 225 229 231 229 225 217 213 215 215 215 222 227 232 236 236 233 232 230 228 227 226 225 226 226 228 232 234 237 240 242 244 245 245 244 243 240 239 241 244 248 250 251 253 256 260 260 256 249 249 254 257 256 254 254 255 259 263 267
211 212 215 216 214 211 210 209 206 201 197 198 205 209 213 215 216 219 221 221 220 220 222 223 224 226 227 226 225 227 228 229 227 220 216 215 213 213 217 221 226 231 234 235 236 234 231 229 227 227 229 229 230 233 236 238 241 242 244 244 243 243 243 242 241 241 242 244 247 248 250 253 256 258 257 251 248 251 254 254 254 255 256 257 259 261
217 215 214 215 216 215 213 212 211 206 199 197 204 205 205 208 213 216 219 221 222 221 222 223 223 223 225 224 223 223 225 228 227 222 218 217 215 213 215 219 224 227 231 235 238 237 235 233 230 231 232 232 233 234 235 238 241 243 244 244 243 245 246 246 246 245 245 245 245 246 248 249 251 255 256 252 247 249 252 254 254 255 256 258 259 261
220 220 218 215 213 214 215 216 215 210 203 201 209 211 208 207 211 213 216 220 223 223 223 222 221 222 223 223 221 222 223 225 225 223 220 219 218 216 215 218 222 225 229 233 236 237 237 236 235 235 235 236 236 236 236 239 241 243 244 244 244 246 248 249 248 246 245 245 244 245 247 247 248 251 252 249 246 247 250 252 253 254 255 257 259 261
216 219 221 220 217 214 215 217 218 214 209 209 214 217 214 212 213 214 214 216 219 222 223 223 222 221 221 222 221 221 222 224 225 224 222 221 221 220 218 219 220 223 227 231 234 236 237 237 237 236 236 237 237 236 237 239 241 243 244 244 245 247 249 250 249 246 243 242 242 244 245 246 247 248 247 245 244 245 247 249 251 253 255 257 259 261
214 217 219 221 221 220 218 218 221 219 215 214 217 219 218 217 218 218 217 217 218 219 221 222 222 221 222 223 222 222 223 224 226 226 224 223 223 223 222 222 222 223 227 230 233 235 236 237 238 237 237 237 237 237 237 238 240 241 241 242 244 245 247 248 249 247 244 242 241 242 243 244 245 245 243 242 242 244 246 249 251 253 255 258 260 261
212 216 218 219 221 222 221 220 222 223 221 218 218 220 221 222 223 223 222 222 222 221 221 221 221 221 222 223 223 223 224 225 226 227 226 224 224 225 225 225 225 226 228 231 233 235 235 237 237 238 238 239 239 238 237 237 239 239 239 240 242 244 247 248 248 248 247 245 243 241 241 242 243 242 241 242 243 245 248 251 253 255 257 260 262 265
211 214 217 218 220 222 222 221 223 225 225 223 222 222 224 225 225 224 223 223 224 224 224 224 224 224 223 223 223 222 223 224 226 227 227 226 226 227 227 228 228 229 231 233 234 234 235 236 237 238 239 240 240 240 238 237 238 239 239 239 240 242 244 246 247 247 247 246 244 241 240 241 242 242 243 245 247 249 251 252 255 258 260 262 264 267
217 217 219 221 222 223 223 223 223 225 226 225 225 225 226 226 226 224 223 223 224 224 224 225 226 225 224 223 223 222 222 224 226 227 229 229 229 229 230 231 231 232 234 236 236 235 235 236 237 238 239 240 240 240 239 238 238 239 239 239 240 240 242 243 245 246 246 245 244 242 241 242 242 244 247 249 250 251 253 255 257 260 263 264 265 267
221 221 222 224 225 225 225 224 224 225 224 224 224 225 224 224 225 225 224 225 225 226 227 227 227 227 227 227 226 224 223 224 226 228 230 231 231 232 233 233 234 235 236 237 237 236 235 235 237 237 238 239 239 240 240 239 239 239 240 240 240 240 241 242 243 245 246 247 246 243 241 242 243 245 249 251 252 253 256 257 259 261 262 263 265 266
Height
5843 5844 5846 5850 5854 5856 5858 5860 5863 5865 5866 5868 5870 5871 5874 5875 5878 5880 5884 5887 5886 5885 5884 5885 5887 5889 5891 5888 5886 5889 5889 5888 5887 5889 5891 5891 5891 5893 5893 5894 5896 5895 5895 5894 5895 5897 5898 5898 5898 5898 5899 5900 5902 5904 5906 5907 5909 5911 5913 5914 5916 5918 5919 5921 5922 5923 5924 5926 5927 5928 5929 5930 5931 5932 5933 5934 5935 5936 5937 5937 5938 5939 5939 5940 5941 5941
5840 5842 5847 5850 5851 5852 5854 5857 5859 5861 5863 5865 5867 5869 5872 5874 5876 5878 5883 5887 5885 5884 5885 5885 5886 5888 5891 5888 5885 5886 5888 5888 5886 5886 5891 5892 5891 5891 5891 5894 5896 5895 5894 5895 5895 5896 5897 5898 5898 5898 5899 5900 5901 5903 5905 5906 5908 5910 5912 5913 5915 5917 5919 5920 5921 5923 5924 5925 5927 5928 5929 5930 5931 5932 5933 5934 5935 5936 5937 5937 5938 5939 5940 5940 5941 5942
5838 5843 5846 5846 5847 5848 5850 5852 5855 5857 5859 5862 5863 5866 5869 5873 5875 5877 5881 5886 5885 5883 5885 5885 5885 5886 5888 5887 5886 5885 5885 5888 5887 5883 5887 5892 5891 5890 5890 5892 5894 5894 5894 5894 5895 5896 5896 5897 5899 5899 5899 5899 5900 5902 5904 5905 5907 5909 5911 5913 5914 5916 5918 5919 5921 5922 5924 5925 5927 5928 5929 5930 5931 5932 5933 5934 5935 5936 5937 5937 5938 5939 5940 5941 5941 5942
5838 5842 5843 5843 5844 5845 5846 5849 5851 5854 5855 5857 5860 5862 5866 5870 5874 5876 5879 5883 5883 5883 5884 5885 5885 5886 5887 5887 5888 5888 5886 5886 5886 5883 5883 5887 5890 5891 5891 5892 5893 5893 5893 5894 5895 5896 5896 5897 5898 5899 5899 5899 5899 5901 5903 5905 5907 5909 5911 5913 5914 5915 5917 5919 5921 5922 5924 5925 5927 5928 5928 5930 5931 5932 5932 5933 5935 5935 5937 5937 5938 5939 5940 5941 5942 5942
5836 5839 5838 5838 5840 5841 5843 5845 5847 5850 5852 5854 5857 5860 5864 5867 5871 5875 5879 5882 5882 5881 5881 5883 5884 5884 5886 5886 5887 5889 5888 5886 5885 5883 5881 5883 5887 5890 5891 5892 5893 5893 5893 5894 5895 5896 5896 5896 5897 5898 5898 5899 5899 5900 5902 5905 5907 5909 5910 5912 5913 5914 5916 5918 5920 5922 5924 5925 5926 5927 5928 5929 5930 5931 5932 5933 5934 5935 5936 5938 5938 5939 5940 5941 5942 5942
5833 5834 5834 5835 5837 5839 5840 5842 5845 5847 5850 5852 5854 5858 5862 5865 5867 5872 5875 5879 5881 5879 5879 5881 5881 5880 5881 5882 5885 5888 5889 5888 5887 5884 5881 5880 5882 5888 5891 5891 5892 5892 5892 5893 5894 5895 5895 5896 5897 5898 5899 5899 5899 5900 5901 5903 5906 5907 5909 5910 5912 5914 5916 5917 5919 5922 5924 5924 5925 5926 5928 5929 5930 5931 5932 5933 5934 5935 5936 5938 5938 5939 5940 5941 5942 5943
5829 5829 5830 5832 5834 5836 5837 5839 5842 5844 5846 5849 5852 5857 5860 5862 5864 5868 5871 5874 5877 5877 5878 5879 5878 5878 5879 5879 5882 5886 5887 5888 5888 5885 5882 5879 5878 5884 5889 5889 5890 5890 5891 5893 5894 5895 5895 5895 5897 5899 5900 5900 5898 5899 5900 5903 5905 5907 5909 5910 5911 5913 5915 5917 5919 5921 5923 5924 5925 5926 5927 5928 5929 5931 5932 5933 5934 5935 5936 5937 5938 5939 5940 5941 5942 5942
5825 5826 5828 5831 5832 5833 5834 5837 5840 5842 5844 5846 5851 5855 5856 5858 5860 5863 5867 5870 5873 5876 5877 5878 5876 5875 5876 5877 5878 5881 5884 5886 5887 5886 5884 5879 5876 5881 5885 5888 5889 5889 5891 5893 5893 5894 5894 5894 5896 5898 5901 5900 5898 5898 5900 5903 5905 5907 5909 5910 5911 5913 5915 5917 5919 5920 5921 5923 5924 5925 5927 5928 5930 5931 5932 5933 5934 5935 5936 5937 5938 5939 5940 5941 5941 5942
5823 5824 5826 5827 5829 5830 5833 5836 5838 5839 5840 5844 5848 5850 5852 5855 5857 5859 5862 5865 5869 5871 5872 5875 5875 5872 5872 5874 5875 5877 5879 5882 5884 5885 5885 5881 5875 5877 5882 5886 5888 5888 5890 5891 5892 5892 5892 5892 5894 5896 5899 5899 5897 5897 5899 5902 5904 5906 5908 5909 5911 5913 5915 5917 5919 5920 5921 5922 5923 5925 5927 5928 5929 5931 5932 5933 5934 5935 5936 5937 5938 5939 5940 5941 5941 5942
5818 5820 5822 5823 5826 5828 5831 5833 5834 5836 5838 5842 5845 5846 5848 5850 5853 5856 5857 5859 5862 5862 5862 5867 5871 5871 5870 5871 5872 5873 5874 5877 5880 5882 5884 5882 5876 5874 5879 5883 5886 5886 5888 5889 5890 5890 5890 5891 5892 5893 5896 5898 5897 5895 5897 5900 5903 5905 5907 5909 5911 5913 5915 5917 5918 5919 5920 5922 5923 5925 5926 5928 5929 5930 5931 5933 5934 5935 5936 5937 5938 5939 5940 5940 5941 5942
5813 5815 5816 5819 5822 5825 5828 5830 5831 5833 5836 5839 5841 5842 5844 5846 5849 5852 5853 5856 5856 5852 5854 5861 5865 5867 5866 5867 5870 5871 5871 5875 5879 5879 5881 5881 5876 5873 5876 5880 5883 5884 5885 5887 5889 5890 5890 5890 5891 5893 5896 5898 5897 5895 5895 5899 5903 5905 5908 5910 5912 5913 5915 5916 5918 5919 5920 5921 5923 5925 5926 5928 5929 5930 5931 5933 5934 5935 5936 5937 5938 5939 5940 5940 5941 5941
5807 5808 5810 5814 5818 5821 5825 5826 5827 5830 5833 5835 5837 5838 5841 5843 5846 5848 5850 5851 5848 5846 5852 5858 5861 5861 5858 5861 5868 5870 5870 5872 5876 5878 5881 5879 5874 5872 5874 5877 5881 5884 5884 5886 5888 5890 5890 5890 5891 5893 5896 5898 5898 5896 5896 5899 5902 5905 5908 5910 5912 5913 5915 5916 5917 5918 5920 5921 5923 5924 5926 5928 5929 5930 5931 5932 5934 5935 5936 5937 5938 5939 5940 5940 5941 5941
5802 5804 5807 5810 5814 5817 5821 5822 5823 5825 5828 5830 5832 5834 5838 5840 5841 5842 5844 5844 5843 5846 5852 5856 5857 5855 5853 5858 5865 5867 5868 5869 5872 5876 5878 5876 5872 5872 5874 5874 5877 5883 5884 5884 5886 5888 5889 5890 5890 5891 5894 5897 5898 5897 5896 5899 5902 5905 5907 5909 5911 5913 5915 5916 5917 5918 5919 5921 5922 5924 5926 5927 5929 5930 5931 5932 5934 5935 5936 5937 5938 5939 5940 5940 5941 5941
5799 5801 5803 5807 5810 5814 5816 5817 5818 5820 5824 5826 5828 5831 5834 5835 5834 5836 5839 5841 5842 5846 5850 5853 5853 5850 5850 5856 5861 5864 5866 5867 5869 5872 5874 5873 5870 5872 5874 5873 5873 5877 5881 5884 5885 5886 5888 5888 5888 5888 5891 5894 5896 5896 5896 5898 5902 5904 5907 5909 5911 5912 5914 5915 5916 5918 5919 5920 5922 5923 5925 5927 5928 5929 5931 5932 5933 5934 5936 5936 5937 5938 5939 5940 5940 5941
5792 5794 5798 5803 5805 5809 5811 5813 5815 5819 5821 5824 5827 5829 5830 5831 5832 5835 5837 5839 5842 5845 5847 5849 5848 5846 5849 5855 5858 5861 5863 5864 5867 5868 5870 5871 5868 5868 5872 5872 5870 5871 5877 5882 5883 5885 5887 5887 5886 5886 5888 5891 5892 5893 5895 5897 5901 5903 5906 5908 5909 5911 5913 5914 5916 5917 5918 5920 5921 5923 5924 5926 5928 5929 5930 5931 5933 5934 5935 5936 5937 5938 5939 5939 5940 5941
5786 5790 5797 5800 5801 5805 5808 5811 5814 5817 5818 5821 5824 5825 5826 5829 5831 5834 5836 5839 5842 5844 5845 5845 5844 5846 5850 5853 5855 5857 5858 5861 5864 5865 5868 5869 5866 5865 5868 5871 5870 5868 5872 5879 5881 5884 5886 5885 5884 5884 5886 5888 5889 5891 5894 5897 5900 5903 5905 5907 5908 5910 5911 5913 5914 5916 5917 5918 5920 5922 5924 5926 5927 5928 5929 5931 5932 5934 5935 5936 5936 5937 5938 5939 5940 5940
5782 5787 5792 5794 5796 5800 5804 5807 5811 5812 5814 5816 5819 5822 5825 5829 5831 5832 5835 5838 5840 5841 5842 5842 5843 5845 5847 5849 5851 5852 5854 5857 5859 5861 5865 5866 5864 5862 5864 5869 5870 5867 5869 5875 5879 5883 5885 5885 5884 5883 5884 5886 5888 5890 5893 5896 5899 5901 5903 5905 5907 5908 5910 5911 5913 5914 5916 5918 5920 5921 5923 5925 5927 5928 5929 5930 5931 5933 5934 5935 5936 5937 5938 5939 5939 5940
5779 5784 5787 5788 5792 5796 5798 5803 5807 5808 5810 5812 5815 5821 5825 5826 5826 5829 5832 5835 5837 5838 5840 5841 5843 5843 5843 5845 5847 5848 5851 5854 5855 5857 5860 5863 5861 5858 5860 5866 5868 5867 5868 5873 5876 5879 5882 5884 5882 5881 5883 5885 5888 5890 5893 5895 5898 5900 5901 5903 5905 5907 5909 5911 5912 5914 5916 5917 5919 5921 5923 5924 5926 5927 5928 5929 5931 5932 5933 5934 5935 5936 5937 5938 5938 5939
5774 5780 5782 5783 5787 5792 5793 5797 5801 5804 5806 5810 5814 5817 5821 5821 5821 5825 5829 5831 5834 5836 5838 5840 5842 5843 5842 5841 5844 5846 5848 5850 5852 5853 5855 5859 5859 5855 5856 5862 5865 5866 5867 5871 5874 5876 5878 5881 5880 5879 5882 5885 5887 5890 5892 5894 5896 5898 5900 5902 5904 5906 5907 5909 5911 5913 5915 5917 5919 5920 5922 5923 5925 5926 5928 5929 5930 5931 5932 5933 5934 5935 5936 5936 5937 5938
5768 5773 5779 5781 5783 5786 5786 5787 5794 5798 5801 5806 5809 5811 5814 5816 5818 5822 5826 5829 5832 5834 5836 5838 5839 5842 5843 5841 5841 5843 5845 5847 5849 5849 5851 5855 5855 5853 5855 5859 5863 5865 5865 5869 5873 5874 5876 5878 5878 5879 5881 5884 5887 5889 5891 5893 5895 5897 5899 5900 5902 5905 5906 5908 5911 5913 5915 5916 5918 5919 5921 5922 5924 5925 5927 5928 5929 5930 5931 5932 5933 5934 5934 5935 5936 5936
5760 5766 5773 5778 5779 5779 5777 5780 5789 5794 5796 5799 5802 5805 5808 5811 5815 5820 5822 5826 5829 5831 5834 5837 5838 5840 5842 5841 5840 5840 5842 5843 5846 5847 5848 5851 5852 5852 5854 5856 5862 5864 5863 5866 5872 5873 5874 5877 5878 5878 5880 5883 5885 5887 5889 5891 5893 5895 5897 5899 5901 5903 5906 5908 5910 5912 5914 5915 5916 5918 5919 5921 5922 5924 5925 5926 5928 5929 5929 5930 5931 5932 5933 5933 5934 5934
5754 5757 5764 5772 5775 5774 5772 5778 5788 5792 5794 5797 5799 5802 5804 5807 5813 5816 5817 5821 5825 5828 5831 5835 5839 5841 5839 5838 5839 5840 5840 5840 5843 5844 5845 5848 5850 5851 5852 5853 5858 5862 5862 5864 5869 5871 5873 5876 5877 5877 5878 5881 5884 5886 5888 5890 5892 5894 5896 5898 5900 5902 5905 5907 5909 5911 5912 5913 5915 5916 5917 5919 5920 5922 5923 5925 5926 5927 5928 5929 5930 5930 5931 5932 5932 5933
5747 5751 5758 5765 5770 5773 5774 5776 5782 5787 5790 5794 5797 5801 5803 5804 5809 5812 5814 5818 5820 5824 5828 5832 5837 5838 5835 5835 5837 5839 5838 5838 5841 5842 5843 5845 5847 5849 5850 5851 5855 5859 5860 5861 5865 5869 5872 5874 5875 5876 5877 5880 5883 5886 5887 5889 5891 5893 5895 5897 5899 5901 5904 5905 5907 5909 5910 5912 5913 5914 5916 5917 5919 5920 5922 5923 5924 5925 5926 5927 5928 5929 5929 5930 5930 5931
5737 5745 5752 5758 5763 5771 5775 5774 5775 5779 5784 5787 5790 5796 5800 5801 5805 5809 5813 5816 5818 5821 5825 5828 5832 5832 5831 5833 5835 5836 5836 5836 5838 5840 5841 5843 5846 5847 5849 5849 5851 5856 5859 5859 5862 5867 5871 5872 5873 5875 5877 5880 5882 5884 5886 5889 5891 5892 5894 5896 5898 5900 5902 5903 5905 5907 5908 5910 5912 5913 5915 5916 5918 5919 5921 5922 5923 5923 5924 5925 5926 5927 5928 5928 5929 5929
5731 5739 5744 5751 5757 5763 5768 5769 5769 5771 5775 5780 5784 5789 5794 5798 5802 5806 5811 5814 5815 5818 5821 5825 5829 5827 5826 5829 5831 5833 5836 5835 5835 5838 5840 5841 5844 5846 5848 5849 5849 5851 5856 5858 5859 5864 5870 5871 5872 5875 5877 5879 5881 5884 5886 5888 5890 5892 5893 5895 5897 5898 5900 5901 5903 5905 5907 5909 5910 5912 5914 5915 5916 5918 5919 5920 5921 5921 5922 5923 5924 5925 5925 5926 5927 5927
5724 5728 5732 5741 5750 5756 5761 5761 5762 5765 5770 5775 5780 5784 5788 5794 5798 5802 5806 5809 5812 5815 5818 5822 5826 5825 5824 5827 5830 5832 5834 5833 5832 5835 5838 5839 5842 5845 5847 5847 5847 5848 5853 5857 5856 5860 5866 5869 5870 5873 5876 5878 5880 5882 5885 5887 5889 5891 5892 5894 5896 5897 5899 5900 5902 5904 5906 5907 5909 5911 5912 5913 5915 5916 5917 5918 5918 5919 5919 5920 5922 5922 5923 5924 5924 5925
5716 5721 5726 5735 5743 5751 5757 5759 5761 5765 5768 5771 5776 5780 5783 5789 5795 5799 5801 5805 5808 5811 5815 5819 5823 5823 5822 5825 5828 5830 5831 5831 5832 5834 5836 5837 5840 5843 5844 5844 5845 5846 5850 5853 5854 5856 5861 5865 5868 5871 5873 5876 5877 5879 5882 5885 5887 5889 5891 5893 5894 5896 5898 5899 5901 5902 5904 5905 5907 5909 5911 5912 5913 5913 5914 5915 5916 5916 5917 5918 5919 5920 5921 5921 5922 5922
5709 5716 5725 5733 5738 5743 5749 5753 5757 5760 5763 5766 5773 5777 5779 5784 5791 5795 5797 5801 5805 5808 5812 5817 5820 5821 5821 5820 5823 5827 5829 5830 5831 5832 5834 5836 5837 5839 5840 5842 5844 5845 5847 5851 5853 5855 5858 5862 5865 5869 5872 5874 5875 5876 5880 5883 5885 5887 5889 5891 5893 5895 5896 5898 5899 5901 5902 5903 5905 5907 5908 5909 5910 5911 5912 5912 5913 5914 5915 5915 5917 5918 5918 5919 5919 5920
5696 5707 5720 5730 5735 5736 5739 5744 5750 5754 5758 5761 5766 5773 5778 5780 5785 5789 5793 5799 5802 5805 5810 5814 5816 5817 5817 5816 5819 5825 5828 5829 5830 5830 5832 5833 5834 5835 5839 5841 5843 5845 5846 5849 5853 5855 5857 5860 5864 5867 5870 5871 5873 5875 5878 5880 5883 5885 5887 5889 5891 5893 5895 5896 5898 5899 5901 5902 5903 5904 5906 5906 5907 5908 5909 5910 5911 5912 5913 5913 5914 5915 5916 5917 5917 5917
5690 5705 5716 5722 5726 5728 5732 5738 5744 5749 5754 5756 5760 5769 5776 5778 5781 5785 5791 5796 5799 5802 5807 5811 5813 5815 5815 5813 5817 5824 5826 5827 5827 5826 5828 5831 5832 5833 5837 5839 5841 5844 5846 5848 5851 5853 5855 5858 5861 5864 5867 5869 5871 5873 5875 5878 5880 5882 5885 5887 5889 5891 5893 5895 5896 5898 5899 5901 5901 5902 5903 5904 5904 5906 5907 5908 5909 5909 5910 5910 5911 5912 5913 5914 5914 5915
5687 5696 5704 5711 5717 5723 5730 5735 5739 5744 5750 5753 5756 5762 5769 5776 5779 5781 5787 5793 5797 5799 5802 5807 5809 5812 5813 5812 5813 5820 5824 5823 5822 5824 5827 5830 5831 5832 5836 5839 5840 5843 5845 5847 5848 5851 5853 5855 5858 5861 5864 5867 5869 5871 5873 5875 5877 5880 5882 5884 5887 5889 5890 5892 5894 5896 5897 5899 5899 5900 5901 5901 5902 5903 5904 5905 5906 5907 5907 5908 5908 5909 5910 5911 5912 5912
5682 5687 5696 5707 5715 5723 5730 5734 5736 5739 5742 5745 5750 5755 5763 5772 5778 5780 5782 5787 5793 5795 5798 5803 5805 5807 5810 5811 5810 5815 5819 5818 5819 5823 5825 5828 5830 5832 5835 5838 5839 5839 5842 5844 5845 5847 5850 5852 5855 5858 5861 5863 5866 5868 5871 5873 5875 5877 5879 5882 5884 5886 5888 5890 5892 5894 5895 5897 5898 5898 5898 5899 5899 5900 5902 5903 5904 5904 5904 5905 5906 5907 5908 5909 5910 5910
5675 5682 5691 5699 5707 5718 5726 5727 5727 5730 5735 5740 5746 5752 5758 5765 5773 5779 5781 5783 5788 5793 5795 5798 5800 5802 5806 5809 5808 5810 5813 5814 5818 5822 5825 5826 5828 5830 5832 5834 5834 5834 5837 5839 5841 5843 5846 5849 5852 5855 5857 5860 5863 5866 5868 5870 5873 5875 5877 5879 5881 5884 5886 5888 5889 5891 5892 5894 5895 5896 5897 5897 5897 5898 5899 5900 5901 5901 5902 5902 5904 5905 5906 5907 5907 5907
5667 5675 5683 5689 5699 5711 5718 5720 5720 5724 5731 5736 5742 5749 5755 5760 5767 5775 5779 5781 5785 5790 5793 5796 5799 5800 5802 5805 5807 5807 5808 5811 5816 5821 5822 5823 5825 5828 5830 5831 5832 5832 5833 5836 5838 5840 5843 5846 5849 5851 5854 5857 5860 5863 5865 5868 5870 5872 5874 5876 5879 5881 5884 5885 5887 5889 5890 5891 5893 5894 5895 5895 5896 5896 5897 5898 5898 5899 5900 5900 5901 5902 5903 5904 5904 5905
5666 5673 5679 5686 5695 5704 5711 5714 5715 5721 5728 5732 5738 5746 5751 5755 5759 5765 5772 5779 5784 5788 5791 5795 5798 5796 5794 5797 5801 5803 5804 5808 5813 5817 5819 5821 5824 5827 5828 5829 5831 5832 5832 5834 5836 5838 5841 5843 5845 5849 5852 5855 5858 5860 5863 5865 5868 5869 5871 5873 5876 5879 5881 5883 5884 5886 5888 5889 5890 5891 5892 5893 5894 5894 5895 5895 5896 5897 5898 5898 5899 5899 5900 5901 5902 5903
5664 5669 5674 5681 5688 5697 5704 5706 5709 5718 5726 5730 5735 5741 5744 5750 5756 5760 5765 5771 5777 5781 5784 5788 5790 5787 5786 5789 5793 5797 5801 5806 5811 5814 5816 5819 5823 5825 5826 5827 5829 5830 5831 5832 5834 5836 5839 5842 5844 5847 5850 5853 5855 5858 5860 5862 5865 5867 5869 5871 5873 5875 5878 5880 5882 5884 5885 5886 5887 5888 5889 5890 5891 5892 5892 5893 5894 5894 5895 5896 5896 5897 5897 5899 5900 5900
5660 5665 5671 5678 5683 5690 5697 5701 5706 5715 5721 5724 5730 5735 5737 5745 5753 5758 5762 5764 5765 5769 5775 5780 5781 5779 5781 5784 5787 5792 5799 5804 5808 5812 5815 5819 5822 5823 5823 5824 5825 5827 5828 5829 5831 5834 5837 5840 5842 5845 5847 5850 5852 5854 5857 5859 5862 5864 5866 5868 5870 5872 5874 5876 5879 5881 5882 5884 5884 5885 5886 5887 5889 5889 5889 5890 5891 5892 5893 5893 5893 5894 5895 5896 5897 5898
5656 5663 5668 5674 5679 5685 5691 5697 5704 5710 5713 5718 5726 5730 5730 5737 5746 5752 5756 5758 5757 5761 5767 5772 5774 5774 5777 5781 5785 5790 5796 5802 5805 5809 5813 5816 5816 5816 5817 5820 5821 5823 5824 5825 5829 5833 5836 5838 5839 5842 5844 5846 5848 5851 5853 5856 5858 5861 5863 5865 5867 5869 5871 5873 5876 5877 5879 5880 5882 5882 5883 5884 5886 5886 5887 5888 5888 5889 5889 5890 5890 5891 5892 5893 5894 5895
5653 5659 5664 5668 5674 5682 5688 5693 5701 5708 5712 5716 5723 5725 5724 5729 5739 5745 5749 5754 5755 5757 5762 5766 5770 5771 5773 5777 5781 5785 5790 5797 5800 5803 5807 5809 5808 5810 5814 5817 5818 5820 5822 5825 5828 5831 5833 5835 5837 5839 5841 5843 5846 5848 5850 5853 5855 5857 5860 5862 5863 5864 5867 5870 5872 5873 5875 5877 5878 5879 5880 5881 5883 5884 5884 5885 5886 5886 5886 5887 5887 5888 5889 5890 5892 5893
5649 5654 5659 5665 5672 5677 5683 5689 5697 5705 5709 5710 5715 5719 5719 5723 5731 5739 5745 5749 5749 5751 5757 5762 5765 5765 5767 5774 5779 5780 5785 5790 5792 5795 5799 5802 5804 5809 5813 5814 5816 5818 5821 5824 5827 5829 5831 5833 5834 5837 5839 5841 5843 5845 5847 5849 5851 5853 5855 5857 5858 5860 5863 5866 5868 5869 5871 5872 5874 5876 5877 5878 5880 5881 5882 5883 5883 5883 5884 5884 5885 5886 5887 5888 5889 5890
5645 5650 5655 5661 5668 5673 5679 5684 5690 5697 5702 5703 5705 5708 5711 5715 5722 5729 5736 5739 5742 5747 5752 5755 5756 5758 5763 5770 5774 5774 5778 5783 5786 5791 5797 5800 5804 5809 5811 5812 5814 5816 5819 5822 5824 5826 5828 5830 5832 5834 5836 5838 5841 5842 5844 5846 5848 5850 5852 5853 5854 5857 5858 5860 5862 5864 5866 5868 5870 5872 5874 5875 5877 5878 5879 5880 5880 5881 5881 5881 5882 5883 5884 5886 5887 5888
5642 5646 5651 5656 5662 5669 5676 5680 5683 5688 5694 5697 5699 5701 5704 5708 5712 5718 5724 5730 5737 5743 5745 5746 5751 5756 5760 5765 5769 5771 5775 5780 5785 5791 5797 5800 5805 5807 5808 5810 5812 5813 5816 5818 5820 5822 5825 5827 5829 5832 5834 5836 5838 5840 5841 5843 5845 5847 5848 5850 5852 5853 5854 5855 5857 5860 5862 5863 5866 5868 5870 5871 5873 5875 5876 5877 5877 5878 5879 5879 5880 5880 5881 5883 5884 5885
5637 5642 5647 5652 5657 5663 5669 5673 5676 5682 5689 5693 5694 5696 5699 5702 5704 5710 5717 5723 5728 5732 5735 5740 5748 5753 5755 5760 5765 5769 5773 5777 5781 5787 5791 5795 5799 5801 5803 5805 5808 5810 5812 5814 5816 5819 5821 5824 5826 5828 5831 5833 5835 5837 5839 5840 5842 5844 5845 5847 5849 5850 5851 5852 5854 5856 5857 5859 5861 5863 5866 5868 5869 5871 5872 5873 5874 5875 5876 5876 5877 5878 5878 5880 5881 5882
5635 5639 5642 5647 5653 5659 5663 5666 5670 5677 5684 5684 5682 5684 5691 5696 5700 5707 5713 5716 5719 5725 5730 5736 5743 5748 5751 5757 5762 5765 5768 5771 5776 5782 5786 5790 5794 5797 5799 5802 5805 5807 5809 5810 5812 5815 5817 5820 5823 5825 5827 5829 5832 5834 5835 5837 5839 5841 5842 5844 5845 5846 5848 5849 5851 5853 5854 5855 5857 5859 5861 5863 5865 5867 5868 5870 5871 5872 5872 5873 5874 5875 5875 5877 5878 5879
5631 5634 5637 5641 5646 5650 5654 5658 5663 5671 5676 5673 5672 5677 5686 5691 5696 5702 5707 5710 5714 5721 5726 5732 5738 5743 5749 5753 5757 5760 5764 5767 5771 5776 5781 5785 5789 5793 5797 5800 5802 5805 5806 5807 5809 5811 5814 5817 5819 5821 5824 5826 5828 5830 5832 5834 5836 5837 5839 5841 5842 5843 5844 5846 5848 5850 5851 5852 5853 5855 5856 5859 5861 5863 5864 5866 5867 5868 5869 5869 5870 5871 5872 5873 5874 5875
5623 5627 5631 5636 5640 5643 5648 5652 5657 5665 5669 5667 5667 5675 5683 5687 5690 5694 5700 5706 5712 5718 5723 5729 5734 5739 5744 5748 5752 5756 5760 5763 5767 5772 5776 5781 5785 5789 5793 5796 5799 5801 5802 5803 5805 5808 5810 5813 5815 5818 5820 5822 5824 5826 5828 5830 5832 5833 5835 5837 5838 5840 5841 5842 5844 5846 5847 5848 5849 5850 5852 5854 5857 5859 5860 5861 5862 5863 5864 5865 5866 5867 5868 5869 5870 5871
5618 5621 5626 5630 5634 5639 5645 5649 5652 5657 5660 5661 5664 5672 5680 5684 5687 5692 5698 5704 5709 5714 5719 5724 5730 5735 5739 5744 5748 5753 5756 5759 5763 5767 5772 5777 5781 5784 5787 5791 5794 5796 5797 5799 5801 5804 5807 5809 5812 5814 5816 5818 5820 5823 5825 5827 5828 5830 5831 5833 5834 5836 5837 5839 5841 5842 5843 5844 5845 5847 5849 5850 5852 5854 5856 5857 5858 5859 5860 5861 5862 5863 5864 5865 5866 5867
5613 5617 5622 5626 5629 5633 5638 5643 5646 5647 5650 5655 5663 5670 5676 5680 5684 5691 5698 5703 5706 5710 5715 5719 5724 5729 5734 5739 5745 5749 5752 5755 5759 5763 5767 5772 5776 5779 5782 5785 5788 5791 5793 5795 5797 5800 5803 5805 5808 5810 5813 5815 5816 5818 5821 5823 5824 5826 5827 5829 5830 5832 5834 5835 5837 5838 5839 5841 5842 5843 5845 5846 5848 5850 5851 5852 5853 5853 5855 5857 5858 5858 5860 5861 5862 5862
5610 5613 5617 5620 5622 5625 5630 5636 5640 5642 5647 5656 5664 5670 5673 5675 5679 5685 5693 5698 5701 5706 5711 5715 5719 5725 5730 5735 5740 5745 5748 5752 5755 5759 5762 5767 5771 5774 5777 5780 5783 5786 5788 5790 5793 5796 5799 5801 5804 5806 5809 5810 5812 5814 5817 5819 5820 5822 5824 5825 5827 5828 5830 5832 5833 5834 5835 5837 5838 5839 5841 5842 5844 5845 5846 5847 5848 5849 5852 5853 5853 5854 5855 5857 5857 5857
5609 5612 5613 5615 5618 5621 5625 5631 5636 5640 5646 5652 5659 5663 5665 5666 5670 5677 5684 5689 5694 5700 5705 5710 5715 5720 5725 5730 5735 5741 5745 5748 5751 5755 5758 5763 5767 5770 5772 5775 5778 5781 5783 5786 5788 5791 5794 5797 5799 5802 5804 5806 5808 5810 5812 5815 5817 5818 5820 5821 5823 5824 5826 5827 5829 5830 5832 5833 5834 5836 5837 5838 5839 5840 5841 5843 5844 5846 5847 5848 5849 5850 5851 5852 5852 5852
5606 5608 5610 5612 5614 5618 5622 5626 5629 5632 5635 5640 5645 5648 5650 5654 5661 5669 5677 5684 5689 5694 5699 5705 5711 5716 5720 5725 5731 5736 5741 5745 5748 5751 5754 5758 5762 5765 5768 5771 5773 5776 5778 5781 5784 5787 5790 5792 5795 5797 5799 5801 5803 5805 5808 5810 5812 5814 5815 5817 5818 5819 5821 5823 5824 5826 5828 5829 5831 5832 5832 5833 5835 5836 5836 5838 5840 5842 5842 5843 5844 5845 5846 5846 5847 5847